Location: Go�ngahuizen
(53.0821°N, 5.8849°E)
Time: 18:54:22
(UTC+00:00)

Resurs 01 Rocket - Pass Details

Date: 09 April 2020
Orbit: 635 x 643 km, 98.0° (Epoch: 24 May)

Event Time Altitude Azimuth Distance (km) Brightness Sun altitude
Exits shadow 20:55:16 - 208° (SSW) 2,080 4.1 -19.9°
Reaches altitude 10° 20:55:27 10° 209° (SSW) 2,022 4.0 -19.9°
Maximum altitude 20:59:09 26° 267° (W) 1,256 3.5 -20.3°
Drops below altitude 10° 21:02:54 10° 324° (NW) 2,040 5.4 -20.7°
Sets 21:05:26 0° 337° (NNW) 2,955 6.3 -20.9°
